sat.trackr.live / text

‹ back to catalog

TIANQI-24

NORAD 57795 · 2023-135D

PAYLOAD ACTIVE UNKNOWN

§ Identity

Operator
Country
PRC
Launch date
2023-09-05
Launch site
SEAL
Launch vehicle
Mass (kg)
RCS (m²)

External: N2YO · Heavens-Above · Gunter

§ Orbital elements

Epoch: 2026-05-25T03:11:35.066400Z

Period
101.19 min
Inclination
49.9730°
Eccentricity
0.0014225
Mean motion
14.23131479 rev/d
Perigee alt
804.5 km
Apogee alt
825.0 km
Semi-major
7,192.9 km
B*
6.0912e-5
RAAN
249.7850°
Arg perigee
180.9264°
Mean anomaly
179.1624°
Rev number
14,134

§ Raw data

TIANQI-241 57795U 23135D   26145.13304475 -.00000021  00000+0  60912-4 0  99972 57795  49.9730 249.7850 0014225 180.9264 179.1624 14.23131479141344

JSON: /api/v1/satellites/57795 · /tle

For live sub-satellite position, see the globe view (requires WebGL).

§ Visibility from observer

Set your observer location to see the next 7 days of passes ≥ 10°. The values pass through the URL so the page stays shareable.

No JS? Fill the form by hand. The geolocation button needs JavaScript.

§ Radio — SatNOGS DB

ModeDescriptionDownlinkUplink
LoRa Mode U - LoRa 400.450 MHz

1 transmitter · refreshed weekly from db.satnogs.org